Погода в Надыме

Погода в Надыме : погода сейчас, прогноз погоды и архив. Всё, что Вы хотите узнать о погоде в Надыме!

Поиск расширенной информации на нашем сайте:

Другие новости

Новости СМИ2

Главная страница сайта

Новости сайта

03.07.2017

Напоминаем, что на нашем специализированном сайте Метеоцентр.Азия вы можете получить высокодетализированные автоматические прогнозы погоды по пунктам России, СНГ и мира в авиационном формате (включающие направление и скорость ветра, видимость, явления погоды, количество и форму облачности, нижнюю и верхнюю границу облачности).

Рекомендуем: полезная сауна турецкая цена любовная

Погода в Надыме - сегодня

Время (UTC), дата Ветер
(°,м/с) 
Видим.   Явления Облачность Т
(°С)
Тd
(°С)
f(%) Тe
(°С)
Pmin
(гПа)
dP
(гПа)
Po
(мм)
O2
(г/м3)
Тmin Tmax R s Состояние
почвы
21 20.05.18 320 (СЗ) 4000 м  слаб. морось{дождь}  10/10 100 м 
[St]
+0.3 +0.3 100 -1  1003.7  1.4  752  302           
00 21.05.18 310 (СЗ) 10 км  слаб. морось{дождь}  10/10 300 м 
[St]
-2 -2.6 96 -4  1006.8  3.1  754  306           
03 21.05.18 310 (СЗ) 4{10}  10 км  слаб. снег{морось}  10/10 300 м 
[St]
-3.7 -5.2 89 -7  1009.5  2.6  756  309  -3.8    66  равномерный
мокрый или
старый снег
100% 
06 21.05.18 320 (СЗ) 10 км  {снег, морось}  10/10 300 м 
[Sc]
-2 -5.5 77 -5  1011.7  2.2  757  308           
09 21.05.18 290 (З) 20000 м    3/0 верхняя 
[Ci fib]
+1.5 -4.4 65 1013.5  1.8  759  305           
12 21.05.18 290 (З) 20000 м    8/0 средняя, верхняя 
[Ac trans|Ci fib]
+2.2 -4.2 63 +1  1014  0.6  759  304           
18 21.05.18 190 (Ю) 10 км    8/0 средняя 
[Ac trans]
-0.1 -3.7 77 -1  1009.9  -3.1  756  305           
21 21.05.18 200 (Ю) 10 км    10/0 средняя 
[Ac As]
+0.2 -2.8 80 -1  1005.6  -4.4  753  303           
00 22.05.18 180 (Ю) 10 км  слаб. снег  10/0 средняя 
[As op]
+1.7 -1.9 77 +1  1000.2  -5.4  749  300           
03 22.05.18 220 (ЮЗ) 10 км  в посл. час ливневой снег  10/10 300 м кучево-дожд. 
[Cb cap]
+1.9 +1.9 100 996.6  -3.6  746  298  -0.8    67  равномерный
мокрый или
старый снег
100% 
06 22.05.18 270 (З) 10 км  {ливн. осадки, снег}  8/4 1000 м средняя 
[Sc|Ac trans]
+5.6 +1 72 +5  996.9  0.3  746  295           
09 22.05.18 270 (З) 3{10}  10 км    10/5 600 м средняя 
[Sc|Ac trans]
+4.3 +0.2 75 +3  998.9  748  297           
15 22.05.18 280 (З) 5-14{14}  4000 м  слаб. ливневой снег  10/10 300 м кучево-дожд. 
[Cb cap]
+0.3 -0.4 95 -3  1004.3  2.9  752  303    +6.3  0.9     
00 23.05.18 300 (СЗ) 4-11{14}  10 км  позёмок{ливн. осадки}  10/10 300 м кучево-дожд. 
[Cb cap]
-1.6 -3.6 86 -4  1011.7  2.4  757  307           
03 23.05.18 290 (З) 4-10{14}  10 км  слаб. ливневой снег  10/10 300 м кучево-дожд. 
[Cb cap]
-1.8 -4.6 81 -5  1014.2  2.5  759  309  -2.1    62  равномерный
сухой снег
100% 
09 23.05.18 280 (З) 3{11}  20000 м    6/6 600 м 
[Sc]
+2.7 -5.4 55 +1  1016.2  0.4  761  304           
12 23.05.18 270 (З) 20000 м    ясно 
+4.4 -5.4 49 +4  1015  -1.2  760  302           
15 23.05.18 160 (Ю) 10 км    9/0 средняя, верхняя 
[Ac trans|Ci fib]
+2.7 -5.2 56 +2  1012.3  -2.7  758  303    +4.6       
18 23.05.18 140 (ЮВ) 10 км    9/0 средняя 
[Ac trans]
+2 -4.4 63 1008.5  -3.8  755  303           
21 23.05.18 150 (ЮВ) 10 км  слаб. дождь  10/10 1000 м 
[Sc]
+1.9 -0.3 85 1003.3  -5.2  751  301           
03 24.05.18 210 (ЮЗ) 2{10}  4000 м  слаб. дождь{морось}  10/10 200 м 
[Frnb]
+2.1 +2.1 100 +1  996.2  -2.4  746  298  +1.2    68  равномерный
мокрый или
старый снег
100% 
06 24.05.18 250 (З) 10 км  {дождь}  8/8 300 м 
[Sc]
+4 +1.4 83 +4  996.1  -0.2  746  296           
09 24.05.18 230 (ЮЗ) 10 км    10/10 1000 м 
[Sc]
+4.8 -1.9 62 +4  996.3  0.2  746  296           
15 24.05.18 260 (З) 4-11{15}  10 км    10/10 600 м 
[Sc]
-2.8 -6.1 78 -6  1000.9  1.9  749  306    +5.9  0.4     
03 25.05.18 270 (З) 4-10{12}  4000 м  слаб. ливневой снег  10/10 300 м кучево-дожд. 
[Cb cap]
-4.5 -7.5 80 -8  1006.2  1.8  753  309  -6.1    56  равномерный
сухой снег
100% 
Время (UTC), дата Ветер
(°,м/с) 
Видим.   Явления Облачность Т
(°С)
Тd
(°С)
f(%) Тe
(°С)
Pmin
(гПа)
dP
(гПа)
Po
(мм)
O2
(г/м3)
Тmin Tmax R s Состояние
почвы

Для получения пояснительной информации подведите курсор к названию столбца.

ПОГОДА в Надыме - архив

Всё, что Вы хотите узнать о погоде в Надыме - удобно и подробно!

Выберите нужную дату (начиная с 1 января 2015* года) и нажмите кнопку "Найти".
Будут отображены архивные сводки погоды по пункту Надым, начиная с указанной даты.


Отображать данные в формате CSV (для использования в таблицах Excel)


Внимание! Наш архив погоды предназначен исключительно для личного некоммерческого использования в познавательных целях. Если Вам необходимы официальные справки о состоянии погоды (для производственных, юридических, коммерческих и т.п. целей), обращайтесь в органы Росгидромета.

*Примечание: данная дата относится к архиву по метеостанциям СССР (Россия, СНГ, Балтия).
Архив по метеостанциям Зарубежной Европы и Азии (кроме Китая) хранится 10 дней, по другим регионам земного шара (Китай, Африка, Америка, Австралия, Океания) - 1 день.

Надым - район местоположения метеостанции


Название, широта, долгота, высота метеостанции:
Надым 65.6°ш. 72.7°д. 12 м над ур. моря [Российская Федерация]

Дополнительная информация

В oтличие oт бoльшинства пoгoдных сайтoв мы публикуем пoдрoбную метеoинфoрмацию в детальнoм прoфессиoнальнoм фoрмате.

Характеристики температуры и влажнoсти вoздуха измеряются на высoте 2 м в тени вдали oт зданий и деревьев.
Скoрoсть ветра измеряется на высoте 10 м (на урoвне рoста челoвека скoрoсть ветра ниже в 1.5-2 раза). Если метеoстанция нахoдится в гoрoде или в лесу, тo скoрoсть ветра занижена на 2-4 м/с пo сравнению с oткрытым местoм. Скoрoсть ветра над акватoриями крупных рек и oзёр, а также на вершинах хoлмoв на 2-5 м/с выше, чем в oбычных услoвиях.
Атмoсфернoе давление в разных тoчках местнoсти мoжет значительнo oтличаться oт давления на метеoстанции, в зависимoсти oт услoвий рельефа (при пoдъёме на 10 м давление пoнижается примернo на 1 мм рт.ст.).